Location: Unspecified
(0.0000°N, 0.0000°E)
Time: 18:59:23
(UTC+00:00)

Courier 1B Rocket - Pass Details

Date: 27 November 2019
Orbit: 920 x 1202 km, 28.2° (Epoch: 08 December)

Event Time Altitude Azimuth Distance (km) Brightness Sun altitude
Rises 21:28:33 0° 272° (W) 4,059 8.7 -50.0°
Reaches altitude 10° 21:31:54 10° 260° (W) 3,117 8.0 -50.7°
Enters shadow 21:34:19 18° 246° (WSW) 2,563 7.5 -51.2°
